GW1717 Weather Reports


time (UTC)temp
F
wind
direction
speed
knots
gust
knots
rain 1hr
in
rain 24hr
in
rain mn
in
humidity
%
barometer
mb
20260506222356 65 64 0.0 0.0 0.00 0.00 0.00 46 1013.4
20260506221854 65 62 0.0 0.0 0.00 0.00 0.00 46 1013.5
20260506221351 68 80 0.0 0.0 0.00 0.00 0.00 44 1013.5
20260506220848 70 45 0.0 0.0 0.00 0.00 0.00 41 1013.8
20260506220343 69 100 0.0 0.9 0.00 0.00 0.00 39 1013.7
20260506215841 66 211 1.7 1.7 0.00 0.00 0.00 41 1013.9
20260506215336 64 67 0.0 0.9 0.00 0.00 0.00 48 1013.9
20260506214832 63 76 0.0 0.9 0.00 0.00 0.00 47 1014.1
20260506214329 63 62 0.0 0.0 0.00 0.00 0.00 47 1014.1
20260506213828 64 73 0.0 0.9 0.00 0.00 0.00 45 1014.3
20260506213325 63 70 0.0 0.9 0.00 0.00 0.00 46 1014.3
20260506212822 64 41 0.9 1.7 0.00 0.00 0.00 44 1014.3
20260506212317 67 67 0.0 0.9 0.00 0.00 0.00 42 1014.6
20260506211813 67 75 0.0 0.0 0.00 0.00 0.00 40 1014.8
20260506211309 66 111 0.9 0.9 0.00 0.00 0.00 41 1014.7
20260506210807 67 177 0.9 0.9 0.00 0.00 0.00 38 1014.9
20260506210303 66 53 0.0 0.9 0.00 0.00 0.00 41 1014.8
20260506205800 66 178 0.9 0.9 0.00 0.00 0.00 39 1014.9
20260506205256 66 154 0.9 0.9 0.00 0.00 0.00 42 1014.7
20260506204753 65 67 0.9 0.9 0.00 0.00 0.00 45 1014.9
20260506204251 65 202 1.7 1.7 0.00 0.00 0.00 42 1015.2
20260506203748 65 202 0.9 1.7 0.00 0.00 0.00 41 1015.2
20260506203245 65 45 0.0 0.9 0.00 0.00 0.00 44 1015.2
20260506202742 65 73 0.0 0.0 0.00 0.00 0.00 41 1015.3
20260506202239 64 131 0.9 0.9 0.00 0.00 0.00 42 1015.6
20260506201735 65 326 0.9 1.7 0.00 0.00 0.00 44 1015.4
20260506201232 64 166 1.7 1.7 0.00 0.00 0.00 43 1015.5
20260506200729 64 117 0.0 0.9 0.00 0.00 0.00 47 1015.4
20260506200226 63 107 1.7 1.7 0.00 0.00 0.00 46 1015.5
20260506195722 64 221 2.6 2.6 0.00 0.00 0.00 44 1015.7
20260506195219 62 50 0.0 0.9 0.00 0.00 0.00 46 1015.5
20260506194716 63 66 0.0 0.0 0.00 0.00 0.00 47 1015.8
20260506194212 62 71 0.0 0.0 0.00 0.00 0.00 48 1015.8
20260506193710 62 68 0.0 0.0 0.00 0.00 0.00 49 1015.8
20260506193207 63 60 0.0 0.0 0.00 0.00 0.00 48 1015.7
20260506192658 63 210 0.9 1.7 0.00 0.00 0.00 47 1015.9
20260506192154 61 59 0.9 0.9 0.00 0.00 0.00 50 1016.0
20260506191652 60 24 0.9 0.9 0.00 0.00 0.00 47 1016.0
20260506191147 60 21 0.0 0.9 0.00 0.00 0.00 50 1016.1
20260506190645 59 335 1.7 1.7 0.00 0.00 0.00 50 1016.0
20260506190141 59 32 1.7 1.7 0.00 0.00 0.00 50 1016.3
20260506185639 60 38 0.0 0.9 0.00 0.00 0.00 50 1016.2
20260506185134 61 61 1.7 2.6 0.00 0.00 0.00 49 1016.3
20260506184632 62 49 0.0 0.0 0.00 0.00 0.00 46 1016.3
20260506184130 61 62 0.0 0.0 0.00 0.00 0.00 48 1016.3
20260506183626 61 36 0.9 0.9 0.00 0.00 0.00 47 1016.3
20260506183122 60 216 0.9 0.9 0.00 0.00 0.00 48 1016.6
20260506182620 60 38 0.9 1.7 0.00 0.00 0.00 51 1016.2
20260506182116 59 47 0.0 0.9 0.00 0.00 0.00 49 1016.6
20260506181615 59 103 0.0 0.9 0.00 0.00 0.00 48 1017.0
20260506181111 59 84 0.9 1.7 0.00 0.00 0.00 52 1016.7
20260506180608 58 194 1.7 1.7 0.00 0.00 0.00 51 1016.7
20260506180105 58 169 0.9 0.9 0.00 0.00 0.00 53 1016.9
20260506175601 57 64 0.0 0.0 0.00 0.00 0.00 58 1016.8
20260506175057 57 59 0.9 0.9 0.00 0.00 0.00 56 1017.0
20260506174556 57 64 0.0 0.9 0.00 0.00 0.00 55 1017.2
20260506174052 58 41 1.7 1.7 0.00 0.00 0.00 55 1017.1
20260506173550 57 84 0.0 0.0 0.00 0.00 0.00 58 1017.1
20260506173046 57 31 0.9 1.7 0.00 0.00 0.00 53 1017.4
20260506172544 57 52 1.7 1.7 0.00 0.00 0.00 52 1017.7
20260506172040 57 27 1.7 2.6 0.00 0.00 0.00 54 1017.5
20260506171537 57 79 0.0 0.9 0.00 0.00 0.00 53 1017.7
20260506171034 57 66 0.0 0.9 0.00 0.00 0.00 53 1017.7
20260506170532 57 75 0.0 0.0 0.00 0.00 0.00 55 1017.8
20260506170029 57 47 0.9 0.9 0.00 0.00 0.00 53 1017.7
20260506165527 57 80 0.0 0.0 0.00 0.00 0.00 53 1017.8
20260506165018 56 65 0.0 0.0 0.00 0.00 0.00 53 1017.8
20260506164515 55 34 0.9 0.9 0.00 0.00 0.00 54 1018.0
20260506164012 54 49 0.9 1.7 0.00 0.00 0.00 60 1017.9
20260506163508 54 69 1.7 1.7 0.00 0.00 0.00 57 1018.0
20260506163004 56 29 0.9 1.7 0.00 0.00 0.00 59 1018.0
20260506162500 55 36 0.9 0.9 0.00 0.00 0.00 55 1018.1
20260506161957 54 48 0.9 0.9 0.00 0.00 0.00 57 1018.1
20260506161455 54 77 0.9 0.9 0.00 0.00 0.00 56 1018.3
20260506160952 54 63 0.0 0.9 0.00 0.00 0.00 57 1018.2
20260506160449 53 126 0.9 1.7 0.00 0.00 0.00 57 1018.3
20260506155947 53 21 0.9 0.9 0.00 0.00 0.00 57 1018.6
20260506155444 52 85 0.9 0.9 0.00 0.00 0.00 58 1018.8
20260506153611 53 61 0.9 0.9 0.00 0.00 0.00 63 1019.0
20260506153108 52 101 1.7 1.7 0.00 0.00 0.00 60 1018.9
20260506152605 53 72 1.7 1.7 0.00 0.00 0.00 61 1019.0
20260506152103 53 64 0.0 0.9 0.00 0.00 0.00 59 1019.0
20260506151601 54 60 0.9 0.9 0.00 0.00 0.00 63 1019.0
20260506151058 55 70 0.0 0.0 0.00 0.00 0.00 61 1019.1
20260506150554 51 12 0.9 1.7 0.00 0.00 0.00 66 1019.1
20260506150051 51 2 0.0 0.9 0.00 0.00 0.00 64 1019.4
20260506145548 53 8 1.7 2.6 0.00 0.00 0.00 63 1019.2
20260506145045 53 58 0.0 0.0 0.00 0.00 0.00 64 1019.3
20260506144542 53 23 0.9 0.9 0.00 0.00 0.00 64 1019.3
20260506144039 52 47 0.9 0.9 0.00 0.00 0.00 66 1019.3
20260506143537 51 19 0.9 1.7 0.00 0.00 0.00 66 1019.4
20260506143035 50 355 0.0 0.9 0.00 0.00 0.00 65 1019.3
20260506142532 50 15 0.9 0.9 0.00 0.00 0.00 64 1019.3
20260506142031 50 48 0.9 0.9 0.00 0.00 0.00 68 1019.5
20260506141528 49 359 0.0 0.0 0.00 0.00 0.00 68 1019.4
20260506141026 49 0 0.0 0.0 0.00 0.00 0.00 71 1019.3
20260506140523 48 359 0.0 0.9 0.00 0.00 0.00 70 1019.3
20260506140021 48 2 0.9 0.9 0.00 0.00 0.00 75 1019.2
20260506135517 49 2 0.0 0.0 0.00 0.00 0.00 73 1019.1
20260506135014 46 0 0.0 0.0 0.00 0.00 0.00 78 1019.3
20260506134510 45 358 0.0 0.0 0.00 0.00 0.00 81 1019.4
20260506134006 43 357 0.0 0.0 0.00 0.00 0.00 85 1019.2
20260506133504 42 356 0.0 0.0 0.00 0.00 0.00 85 1019.3
20260506133000 42 356 0.0 0.0 0.00 0.00 0.00 86 1019.3
20260506132457 41 352 0.0 0.0 0.00 0.00 0.00 86 1019.2
20260506131955 41 350 0.0 0.0 0.00 0.00 0.00 86 1019.4
20260506131451 41 347 0.0 0.0 0.00 0.00 0.00 86 1019.2
20260506130948 41 346 0.0 0.0 0.00 0.00 0.00 86 1019.2
20260506130445 41 346 0.0 0.0 0.00 0.00 0.00 85 1018.9
20260506125942 41 346 0.0 0.0 0.00 0.00 0.00 86 1018.9
20260506125441 41 344 0.9 0.9 0.00 0.00 0.00 85 1019.4
20260506124938 41 346 0.0 0.0 0.00 0.00 0.00 85 1019.2
20260506124436 41 344 0.0 0.0 0.00 0.00 0.00 86 1019.0
20260506123934 40 343 0.0 0.0 0.00 0.00 0.00 85 1019.0
20260506123431 40 343 0.0 0.0 0.00 0.00 0.00 85 1018.9
20260506122928 41 343 0.0 0.0 0.00 0.00 0.00 83 1018.9
20260506122425 41 343 0.0 0.0 0.00 0.00 0.00 84 1018.7
20260506121924 41 343 0.0 0.0 0.00 0.00 0.00 84 1018.9
20260506121420 41 344 0.0 0.0 0.00 0.00 0.00 83 1018.6
20260506120917 41 346 0.0 0.0 0.00 0.00 0.00 82 1018.6
20260506120415 41 350 0.0 0.0 0.00 0.00 0.00 81 1018.5
20260506115912 41 336 0.0 0.0 0.00 0.00 0.00 83 1018.6
20260506115410 42 340 0.9 0.9 0.00 0.00 0.00 81 1018.5
20260506114908 41 339 0.0 0.0 0.00 0.00 0.00 80 1018.5
20260506114405 41 338 0.0 0.0 0.00 0.00 0.00 82 1018.3
20260506113904 41 339 0.0 0.0 0.00 0.00 0.00 83 1018.7
20260506113401 41 351 0.0 0.0 0.00 0.00 0.00 83 1018.7
20260506112857 41 352 0.0 0.0 0.00 0.00 0.00 83 1018.6
20260506112355 41 353 0.0 0.0 0.00 0.00 0.00 82 1018.7
20260506111852 41 353 0.0 0.0 0.00 0.00 0.00 82 1018.5
20260506111350 41 354 0.0 0.0 0.00 0.00 0.00 82 1018.3
20260506110847 41 356 0.0 0.9 0.00 0.00 0.00 82 1018.1
20260506110344 41 356 0.0 0.0 0.00 0.00 0.00 81 1018.3
20260506105841 41 356 0.0 0.0 0.00 0.00 0.00 81 1018.2
20260506105338 42 356 0.0 0.0 0.00 0.00 0.00 82 1018.2
20260506104835 42 356 0.0 0.9 0.00 0.00 0.00 81 1018.1
20260506104332 42 356 0.0 0.0 0.00 0.00 0.00 80 1018.2
20260506103830 42 356 0.0 0.0 0.00 0.00 0.00 78 1018.1
20260506103328 42 356 0.0 0.0 0.00 0.00 0.00 79 1018.3
20260506102825 42 358 0.0 0.0 0.00 0.00 0.00 78 1018.3
20260506102323 42 358 0.0 0.0 0.00 0.00 0.00 79 1018.2
20260506101820 42 358 0.0 0.9 0.00 0.00 0.00 80 1018.2
20260506101315 42 358 0.0 0.0 0.00 0.00 0.00 76 1018.0
20260506100814 42 358 0.0 0.0 0.00 0.00 0.00 79 1017.9
20260506100312 42 359 0.0 0.0 0.00 0.00 0.00 79 1018.0
20260506095810 43 359 0.0 0.0 0.00 0.00 0.00 78 1018.0
20260506095306 43 359 0.9 0.9 0.00 0.00 0.00 78 1018.0
20260506094803 43 358 0.0 0.0 0.00 0.00 0.00 78 1018.2
20260506094302 43 358 0.0 0.9 0.00 0.00 0.00 79 1018.1
20260506093800 43 0 0.0 0.9 0.00 0.00 0.00 77 1018.5
20260506093256 44 1 0.0 0.9 0.00 0.00 0.00 77 1018.1
20260506092755 43 1 0.0 0.0 0.00 0.00 0.00 76 1018.1
20260506092252 43 1 0.0 0.0 0.00 0.00 0.00 77 1018.0
20260506091749 44 3 0.0 0.0 0.00 0.00 0.00 78 1018.2
20260506091247 44 3 0.9 0.9 0.00 0.00 0.00 77 1018.1
20260506090744 44 3 0.0 0.0 0.00 0.00 0.00 73 1018.0
20260506090241 44 3 0.0 0.0 0.00 0.00 0.00 75 1017.9
20260506085738 44 4 0.9 0.9 0.00 0.00 0.00 76 1017.9
20260506085234 45 4 0.0 0.9 0.00 0.00 0.00 74 1017.7
20260506084731 45 8 0.9 0.9 0.00 0.00 0.00 75 1017.7
20260506084227 45 8 0.0 0.9 0.00 0.00 0.00 75 1017.9
20260506083724 45 7 0.9 0.9 0.00 0.00 0.00 75 1017.8
20260506083222 45 9 0.0 0.0 0.00 0.00 0.00 75 1017.8
20260506082719 46 7 0.0 0.0 0.00 0.00 0.00 71 1017.6
20260506082214 46 28 0.0 0.0 0.00 0.00 0.00 70 1017.8
20260506081713 46 18 0.0 0.0 0.00 0.00 0.00 69 1017.9
20260506081210 46 18 0.0 0.0 0.00 0.00 0.00 69 1017.6
20260506080708 46 18 0.0 0.0 0.00 0.00 0.00 68 1017.7
20260506080204 46 18 0.0 0.0 0.00 0.00 0.00 68 1017.7
20260506073148 47 21 0.0 0.0 0.00 0.00 0.00 68 1017.3
20260506072644 48 27 0.9 0.9 0.00 0.00 0.00 68 1017.2
20260506072142 48 64 0.0 0.0 0.00 0.00 0.00 67 1017.0
20260506071640 48 21 0.0 0.0 0.00 0.00 0.00 66 1017.0
20260506071137 48 71 0.0 0.0 0.00 0.00 0.00 61 1017.0
20260506070634 48 80 0.0 0.0 0.00 0.00 0.00 65 1016.9
20260506070131 48 22 0.0 0.0 0.00 0.00 0.00 66 1016.9
20260506062109 51 17 0.0 0.0 0.00 0.00 0.00 62 1016.6
20260506061604 50 84 0.0 0.0 0.00 0.00 0.00 57 1016.3
20260506061102 50 63 0.0 0.0 0.00 0.00 0.00 63 1016.2
20260506060601 50 52 0.0 0.0 0.00 0.00 0.00 60 1016.2
20260506051029 53 69 0.0 0.9 0.00 0.00 0.00 53 1015.9
20260506050527 54 184 0.9 0.9 0.00 0.00 0.00 53 1015.8
20260506045017 54 76 0.0 0.0 0.00 0.00 0.00 49 1015.8
20260506044516 54 69 0.0 0.0 0.00 0.00 0.00 54 1015.8
20260506044012 54 98 0.9 0.9 0.00 0.00 0.00 54 1015.7
20260506043509 54 81 0.0 0.0 0.00 0.00 0.00 53 1015.6
20260506043007 54 90 0.0 0.0 0.00 0.00 0.00 54 1015.5
20260506042506 54 132 0.9 0.9 0.00 0.00 0.00 55 1015.4
20260506042003 54 114 0.9 0.9 0.00 0.00 0.00 52 1015.4
20260506041502 55 70 0.0 0.0 0.00 0.00 0.00 53 1015.3
20260506040958 55 70 0.0 0.0 0.00 0.00 0.00 53 1015.4
20260506040456 55 99 0.0 0.0 0.00 0.00 0.00 50 1015.4
20260506035952 55 70 0.0 0.0 0.00 0.00 0.00 52 1015.2
20260506035449 56 85 0.0 0.0 0.00 0.00 0.00 50 1015.2
20260506034945 56 26 1.7 1.7 0.00 0.00 0.00 51 1015.4
20260506034443 57 104 0.0 0.9 0.00 0.00 0.00 51 1015.1
20260506033940 57 91 0.0 0.0 0.00 0.00 0.00 47 1015.0
20260506033438 57 41 0.9 0.9 0.00 0.00 0.00 50 1014.8
20260506032934 58 93 0.0 0.0 0.00 0.00 0.00 47 1014.6
20260506032431 58 26 1.7 1.7 0.00 0.00 0.00 46 1014.8
20260506031927 59 86 0.0 0.0 0.00 0.00 0.00 45 1014.9
20260506031425 59 104 0.9 0.9 0.00 0.00 0.00 47 1014.8
20260506030923 59 145 0.0 0.9 0.00 0.00 0.00 45 1014.8
20260506030420 59 10 0.9 0.9 0.00 0.00 0.00 46 1014.7
20260506025917 59 221 0.9 0.9 0.00 0.00 0.00 45 1014.6
20260506025414 60 104 0.0 0.9 0.00 0.00 0.00 45 1014.4
20260506024911 60 65 0.0 0.0 0.00 0.00 0.00 44 1014.6
20260506024408 60 68 0.0 0.0 0.00 0.00 0.00 43 1014.2
20260506023904 61 82 0.0 0.0 0.00 0.00 0.00 43 1014.7
20260506023401 62 60 0.0 0.0 0.00 0.00 0.00 41 1014.6
20260506022857 62 113 0.0 0.9 0.00 0.00 0.00 40 1014.2
20260506022356 62 2 0.9 1.7 0.00 0.00 0.00 40 1014.3
20260506021853 61 83 0.9 0.9 0.00 0.00 0.00 42 1014.2
20260506021349 61 77 0.9 0.9 0.00 0.00 0.00 43 1014.1
20260506020846 61 185 0.9 1.7 0.00 0.00 0.00 40 1014.4
20260506020345 61 92 0.0 0.0 0.00 0.00 0.00 42 1014.3
20260506015841 61 92 0.0 0.0 0.00 0.00 0.00 39 1014.3
20260506015339 61 92 0.0 0.0 0.00 0.00 0.00 43 1014.2
20260506014835 62 47 0.0 0.0 0.00 0.00 0.00 44 1014.1
20260506014332 60 210 0.9 1.7 0.00 0.00 0.00 38 1014.1
20260506013829 60 50 0.0 0.0 0.00 0.00 0.00 47 1014.3
20260506013326 60 62 0.0 0.9 0.00 0.00 0.00 48 1014.1
20260506012823 60 83 0.0 0.0 0.00 0.00 0.00 45 1014.2
20260506012320 61 96 0.0 0.9 0.00 0.00 0.00 47 1014.3
20260506011817 61 85 0.0 0.0 0.00 0.00 0.00 43 1014.2
20260506011314 61 88 0.0 0.0 0.00 0.00 0.00 44 1014.1
20260506010811 61 100 0.0 0.0 0.00 0.00 0.00 40 1014.3
20260506010309 61 100 0.0 0.0 0.00 0.00 0.00 45 1014.2
20260506005806 61 77 0.0 0.0 0.00 0.00 0.00 44 1014.3
20260506005305 62 129 0.9 0.9 0.00 0.00 0.00 45 1014.4
20260506004758 62 112 0.0 0.9 0.00 0.00 0.00 45 1014.3
20260506004256 62 164 0.9 0.9 0.00 0.00 0.00 43 1014.3
20260506003752 62 92 0.0 0.0 0.00 0.00 0.00 42 1014.3
20260506003249 62 113 0.0 0.0 0.00 0.00 0.00 42 1014.6
20260506002745 63 113 0.0 0.0 0.00 0.00 0.00 43 1014.7
20260506002241 63 135 0.9 0.9 0.00 0.00 0.00 41 1014.6
20260506001737 63 128 0.0 0.9 0.00 0.00 0.00 41 1014.6
20260506001235 64 113 0.0 0.0 0.00 0.00 0.00 38 1014.6
20260506000731 64 113 0.0 0.9 0.00 0.00 0.00 42 1014.7
20260506000229 64 126 0.0 0.9 0.00 0.00 0.00 38 1014.7
20260505235726 64 185 0.9 0.9 0.00 0.00 0.00 41 1014.8
20260505235224 65 156 0.9 0.9 0.00 0.00 0.00 38 1014.8
20260505234720 66 144 0.9 0.9 0.00 0.00 0.00 38 1014.7
20260505234218 68 145 0.9 0.9 0.00 0.00 0.00 33 1014.9
20260505233714 69 89 0.0 0.0 0.00 0.00 0.00 34 1014.9
20260505233212 69 67 0.0 0.9 0.00 0.00 0.00 30 1015.0
20260505232709 70 95 0.0 0.9 0.00 0.00 0.00 35 1014.9
20260505232207 70 142 0.0 0.9 0.00 0.00 0.00 30 1015.2
20260505231703 70 74 0.0 0.0 0.00 0.00 0.00 30 1015.2
20260505231202 70 130 0.0 0.9 0.00 0.00 0.00 27 1015.1
20260505230700 70 65 0.9 0.9 0.00 0.00 0.00 27 1015.3
20260505230156 70 184 1.7 1.7 0.00 0.00 0.00 30 1015.2
20260505225652 70 45 0.9 0.9 0.00 0.00 0.00 27 1015.5
20260505225149 70 46 1.7 1.7 0.00 0.00 0.00 30 1015.6
20260505224645 71 117 0.9 0.9 0.00 0.00 0.00 26 1015.7
20260505224143 71 290 0.9 0.9 0.00 0.00 0.00 29 1015.5
20260505223635 71 84 0.9 0.9 0.00 0.00 0.00 27 1015.6
20260505223131 73 44 1.7 1.7 0.00 0.00 0.00 27 1015.7
20260505222627 72 68 0.0 0.9 0.00 0.00 0.00 28 1015.7